Regional Weather Roundup
Issued by NWS Northern Indiana

Home | Current Version | Previous Version | Graphics & Text | Print | Product List | Glossary On
Versions: 1 2 3 4 5 6 7 8 9 10 11 12 13 14 15 16 17 18 19 20 21 22 23 24 25 26 27 28 29 30 31 32 33 34 35 36 37 38 39 40 41 42 43 44 45 46 47 48 49 50
898
ASUS43 KIWX 240110
RWRIWX

KIWX WEATHER ROUNDUP
NATIONAL WEATHER SERVICE NORTHERN INDIANA
800 PM EST THU FEB 23 2017

NOTE: "FAIR" INDICATES FEW OR NO CLOUDS BELOW 12,000 FEET WITH NO
SIGNIFICANT WEATHER AND/OR OBSTRUCTIONS TO VISIBILITY.

* THESE STATIONS ARE NOT UNDER NWS QUALITY CONTROL. THEY ALSO MAY NOT
  REPORT WEATHER SUCH AS PRECIPITATION OR FOG.

INZ001>027-240200-
NORTHERN INDIANA

CITY           SKY/WX    TMP DP  RH WIND       PRES   REMARKS
GARY*          LGT RAIN  39  37  93 NE9       29.78F
VALPARAISO     LGT RAIN  39  38  96 NE12      29.74F FOG
MICHIGAN CITY* LGT RAIN  36  36 100 NE8       29.76F
LAPORTE*       LGT RAIN  38  37  97 NE13      29.73F
KNOX*          CLOUDY    39  28  65 N12       29.75F
SOUTH BEND     LGT RAIN  41  39  93 N9        29.78R
ELKHART*       DRIZZLE   46  41  81 N5        29.78R
GOSHEN         LGT RAIN  49  43  80 E6        29.76F
MONTICELLO*    CLOUDY    51  44  78 NE7       29.72S
LOGANSPORT*    CLOUDY    52  45  76 NE7       29.71F
ROCHESTER*     CLOUDY    52  45  76 NE6       29.73F
WARSAW*        CLOUDY    50  45  81 NE8       29.74F
ANGOLA*        MOCLDY    52  46  82 N6        29.75F
FORT WAYNE     CLOUDY    56  51  84 E3        29.75R
HUNTINGTON*    CLOUDY    56  53  91 NE3       29.75S
PERU/GRISSOM   PTCLDY    56  56 100 NE6       29.71F
MARION*        MOCLDY    58  53  86 E7        29.74S

$$
INZ028>050-240200-
CENTRAL INDIANA

CITY           SKY/WX    TMP DP  RH WIND       PRES   REMARKS
LAFAYETTE      CLOUDY    55  48  77 NE9       29.71S
KOKOMO*        CLOUDY    57  53  86 E8        29.73F
MUNCIE*        CLOUDY    59  53  80 E7        29.74S
INDIANAPOLIS   MOCLDY    62  53  72 SE7       29.71S

$$
MIZ043>046-050>051-056>058-064>065-071>073-077>080-240200-
SOUTHWEST LOWER MICHIGAN

CITY           SKY/WX    TMP DP  RH WIND       PRES   REMARKS
BATTLE CREEK   CLOUDY    51  42  71 NE10      29.78F
BENTON HARBOR  CLOUDY    38  36  92 SE3       29.78F
COLDWATER*     LGT RAIN  51  45  79 CALM      29.77F
HILLSDALE*     CLOUDY    52  43  71 NE8       29.76F
HOLLAND        CLOUDY    44  37  76 CALM      29.80F
GRAND RAPIDS   CLOUDY    46  36  68 NE10      29.81S
KALAMAZOO      CLOUDY    49  40  71 NW5       29.80R
STURGIS*       LGT RAIN  48  44  87 NE7       29.75F
THREE RIVERS*  LGT RAIN  51  43  74 N3        29.78R

$$
OHZ001>008-015>018-024>025-240200-
NORTHWEST OHIO

CITY           SKY/WX    TMP DP  RH WIND       PRES   REMARKS
WAUSEON*       MOCLDY    55  46  71 NE9       29.75F
DEFIANCE       CLOUDY    58  44  60 E3        29.75F
FINDLAY        CLOUDY    58  51  78 CALM      29.76S
TOLEDO EXPRESS MOCLDY    57  45  64 N3        29.76S
TOLEDO METCALF CLOUDY    59  47  64 E6        29.77S
LIMA           CLOUDY    57  54  89 E6        29.76S

$$
AND FOR LAKE MICHIGAN COASTAL AND OPEN LAKE BUOY OBSERVATIONS

STATION/POSITION TEMP    WIND        PRES    VSBY  WAVE
                 AIR SEA DIR/SP/G                  HT/PER
                 (F)     (DEG/KT/KT) (MB)    (MI)  (FT/S)
CALUMET HARBOR    37      20/ 13/ 17 1007.5F
MICHIGAN CITY     36      40/ 12/ 12   N/A
BURNS HARBOR      37      60/ 16/ 18 1007.8F
SAINT JOSEPH      37      30/  3/  4 1009.5

$$
&&




USA.gov is the U.S. government's official web portal to all federal, state and local government web resources and services.